Location: Banksville Park
(38.5557°N, 75.1182°W)
Time: 23:07:53
(UTC+00:00)

Meteor 2-13 Rocket - Pass Details

Date: 19 September 2020
Orbit: 935 x 958 km, 82.5° (Epoch: 30 October)

Event Time Altitude Azimuth Distance (km) Brightness Sun altitude
Rises 01:12:11 0° 354° (N) 3,646 7.9 -25.3°
Reaches altitude 10° 01:14:43 10° 356° (N) 2,696 7.1 -25.8°
Maximum altitude 01:20:53 74° 82° (E) 994 4.3 -26.9°
Enters shadow 01:21:17 71° 115° (ESE) 1,006 4.3 -26.9°
